Location: Dugenta
(41.1333°N, 14.4500°E)
Time: 14:21:05
(UTC+00:00)

CZ-4 R/B - Pass Details

Date: 03 March 2021
Orbit: 532 x 597 km, 97.7° (Epoch: 14 April)

Event Time Altitude Azimuth Distance (km) Brightness Sun altitude
Rises 18:00:36 0° 179° (S) 2,662 4.8 -13.1°
Reaches altitude 10° 18:02:45 10° 185° (S) 1,779 3.9 -13.5°
Maximum altitude 18:06:28 48° 261° (W) 712 2.4 -14.2°
Drops below altitude 10° 18:10:15 10° 336° (NNW) 1,812 4.3 -14.9°
Sets 18:12:27 0° 342° (NNW) 2,718 5.2 -15.3°
